TimeEDT,TemperatureF,Dew PointF,Humidity,Sea Level PressureIn,VisibilityMPH,Wind Direction,Wind SpeedMPH,Gust SpeedMPH,PrecipitationIn,Events,Conditions,WindDirDegrees,DateUTC
12:15 AM,46.4,46.4,100,30.11,8.0,North,-9999.0,-,N/A,,Clear,0,2013-10-21 04:15:00
12:35 AM,46.4,46.4,100,30.11,5.0,North,-9999.0,-,N/A,,Clear,0,2013-10-21 04:35:00
12:55 AM,46.4,46.4,100,30.11,9.0,North,-9999.0,-,N/A,,Clear,0,2013-10-21 04:55:00
1:15 AM,46.4,46.4,100,30.11,9.0,North,-9999.0,-,N/A,,Clear,0,2013-10-21 05:15:00
1:35 AM,46.4,46.4,100,30.11,6.0,North,-9999.0,-,N/A,,Clear,0,2013-10-21 05:35:00
1:55 AM,46.4,46.4,100,30.11,4.0,North,-9999.0,-,N/A,,Clear,0,2013-10-21 05:55:00
2:15 AM,46.4,46.4,100,30.10,5.0,North,-9999.0,-,N/A,,Clear,0,2013-10-21 06:15:00
2:35 AM,44.6,44.6,100,30.10,5.0,North,-9999.0,-,N/A,,Clear,0,2013-10-21 06:35:00
2:55 AM,44.6,44.6,100,30.11,3.0,North,-9999.0,-,N/A,,Clear,0,2013-10-21 06:55:00
3:15 AM,44.6,44.6,100,30.10,4.0,North,-9999.0,-,N/A,,Clear,0,2013-10-21 07:15:00
3:35 AM,44.6,44.6,100,30.10,3.0,North,-9999.0,-,N/A,,Clear,0,2013-10-21 07:35:00
3:55 AM,44.6,44.6,100,30.10,4.0,North,-9999.0,-,N/A,,Clear,0,2013-10-21 07:55:00
4:15 AM,44.6,44.6,100,30.10,8.0,North,-9999.0,-,N/A,,Clear,0,2013-10-21 08:15:00
4:35 AM,44.6,44.6,100,30.10,5.0,North,-9999.0,-,N/A,,Clear,0,2013-10-21 08:35:00
4:55 AM,42.8,42.8,100,30.11,5.0,North,-9999.0,-,N/A,,Clear,0,2013-10-21 08:55:00
5:15 AM,42.8,42.8,100,30.11,7.0,North,-9999.0,-,N/A,,Clear,0,2013-10-21 09:15:00
5:35 AM,41.0,41.0,100,30.12,5.0,North,-9999.0,-,N/A,,Clear,0,2013-10-21 09:35:00
5:55 AM,41.0,41.0,100,30.12,2.5,North,-9999.0,-,N/A,,Clear,0,2013-10-21 09:55:00
6:15 AM,41.0,41.0,100,30.12,1.5,North,-9999.0,-,N/A,,Clear,0,2013-10-21 10:15:00
6:35 AM,41.0,41.0,100,30.13,4.0,North,-9999.0,-,N/A,,Clear,0,2013-10-21 10:35:00
6:55 AM,41.0,41.0,100,30.13,8.0,North,-9999.0,-,N/A,,Clear,0,2013-10-21 10:55:00
7:15 AM,41.0,41.0,100,30.13,5.0,North,-9999.0,-,N/A,,Clear,0,2013-10-21 11:15:00
7:35 AM,41.0,41.0,100,30.13,4.0,North,-9999.0,-,N/A,,Clear,0,2013-10-21 11:35:00
7:55 AM,41.0,41.0,100,30.14,3.0,North,-9999.0,-,N/A,,Clear,0,2013-10-21 11:55:00
8:15 AM,41.0,41.0,100,30.14,8.0,North,-9999.0,-,N/A,,Clear,0,2013-10-21 12:15:00
8:35 AM,44.6,44.6,100,30.14,5.0,North,-9999.0,-,N/A,,Clear,0,2013-10-21 12:35:00
8:55 AM,46.4,46.4,100,30.15,7.0,North,-9999.0,-,N/A,,Clear,0,2013-10-21 12:55:00
9:15 AM,46.4,46.4,100,30.15,9.0,North,-9999.0,-,N/A,,Clear,0,2013-10-21 13:15:00
9:35 AM,48.2,48.2,100,30.16,10.0,North,-9999.0,-,N/A,,Clear,0,2013-10-21 13:35:00
9:55 AM,51.8,48.2,88,30.16,10.0,North,-9999.0,-,N/A,,Clear,0,2013-10-21 13:55:00
10:15 AM,53.6,50.0,88,30.15,7.0,North,-9999.0,-,N/A,,Clear,0,2013-10-21 14:15:00
10:35 AM,57.2,50.0,77,30.15,8.0,North,-9999.0,-,N/A,,Clear,0,2013-10-21 14:35:00
10:55 AM,59.0,51.8,77,30.15,8.0,North,-9999.0,-,N/A,,Clear,0,2013-10-21 14:55:00
11:15 AM,60.8,51.8,72,30.15,7.0,North,-9999.0,-,N/A,,Clear,0,2013-10-21 15:15:00
11:35 AM,62.6,51.8,68,30.15,7.0,North,-9999.0,-,N/A,,Clear,0,2013-10-21 15:35:00
11:55 AM,62.6,50.0,63,30.15,7.0,North,-9999.0,-,N/A,,Clear,0,2013-10-21 15:55:00
12:15 PM,64.4,50.0,59,30.14,7.0,North,-9999.0,-,N/A,,Clear,0,2013-10-21 16:15:00
12:35 PM,66.2,50.0,56,30.14,7.0,North,-9999.0,-,N/A,,Clear,0,2013-10-21 16:35:00
12:55 PM,66.2,48.2,52,30.13,6.0,North,-9999.0,-,N/A,,Haze,0,2013-10-21 16:55:00
1:15 PM,66.2,46.4,49,30.12,6.0,North,-9999.0,-,N/A,,Haze,0,2013-10-21 17:15:00
1:55 PM,66.2,44.6,46,30.10,6.0,North,-9999.0,-,N/A,,Haze,0,2013-10-21 17:55:00
2:15 PM,66.2,46.4,49,30.08,5.0,North,-9999.0,-,N/A,,Haze,0,2013-10-21 18:15:00
2:35 PM,68.0,48.2,49,30.08,7.0,North,-9999.0,-,N/A,,Clear,0,2013-10-21 18:35:00
2:55 PM,68.0,46.4,46,30.07,7.0,North,-9999.0,-,N/A,,Clear,0,2013-10-21 18:55:00
3:15 PM,68.0,46.4,46,30.06,7.0,North,-9999.0,-,N/A,,Clear,0,2013-10-21 19:15:00
3:35 PM,66.2,46.4,49,30.06,7.0,North,-9999.0,-,N/A,,Clear,0,2013-10-21 19:35:00
3:55 PM,66.2,46.4,49,30.07,6.0,North,-9999.0,-,N/A,,Haze,0,2013-10-21 19:55:00
4:15 PM,66.2,46.4,49,30.06,7.0,North,-9999.0,-,N/A,,Clear,0,2013-10-21 20:15:00
4:35 PM,66.2,46.4,49,30.06,7.0,North,-9999.0,-,N/A,,Clear,0,2013-10-21 20:35:00
4:55 PM,66.2,48.2,52,30.05,7.0,North,-9999.0,-,N/A,,Clear,0,2013-10-21 20:55:00
5:15 PM,66.2,48.2,52,30.05,7.0,North,-9999.0,-,N/A,,Clear,0,2013-10-21 21:15:00
5:35 PM,66.2,50.0,56,30.04,7.0,North,-9999.0,-,N/A,,Clear,0,2013-10-21 21:35:00
5:55 PM,64.4,50.0,59,30.04,7.0,North,-9999.0,-,N/A,,Clear,0,2013-10-21 21:55:00
6:15 PM,62.6,53.6,72,30.04,7.0,North,-9999.0,-,N/A,,Clear,0,2013-10-21 22:15:00
6:35 PM,60.8,53.6,77,30.05,6.0,North,-9999.0,-,N/A,,Haze,0,2013-10-21 22:35:00
6:55 PM,59.0,53.6,82,30.04,7.0,North,-9999.0,-,N/A,,Clear,0,2013-10-21 22:55:00
7:15 PM,57.2,53.6,88,30.03,8.0,North,-9999.0,-,N/A,,Clear,0,2013-10-21 23:15:00
7:35 PM,57.2,53.6,88,30.03,8.0,North,-9999.0,-,N/A,,Clear,0,2013-10-21 23:35:00
7:55 PM,57.2,53.6,88,30.04,7.0,North,-9999.0,-,N/A,,Clear,0,2013-10-21 23:55:00
8:15 PM,57.2,53.6,88,30.05,7.0,North,-9999.0,-,N/A,,Clear,0,2013-10-22 00:15:00
8:35 PM,59.0,53.6,82,30.05,8.0,North,-9999.0,-,N/A,,Clear,0,2013-10-22 00:35:00
8:55 PM,57.2,53.6,88,30.05,8.0,North,-9999.0,-,N/A,,Clear,0,2013-10-22 00:55:00
9:15 PM,57.2,53.6,88,30.05,8.0,North,-9999.0,-,N/A,,Clear,0,2013-10-22 01:15:00
9:35 PM,57.2,53.6,88,30.05,8.0,North,-9999.0,-,N/A,,Clear,0,2013-10-22 01:35:00
9:55 PM,55.4,53.6,94,30.05,7.0,North,-9999.0,-,N/A,,Clear,0,2013-10-22 01:55:00
10:15 PM,57.2,53.6,88,30.04,8.0,North,-9999.0,-,N/A,,Clear,0,2013-10-22 02:15:00
10:35 PM,55.4,53.6,94,30.04,7.0,North,-9999.0,-,N/A,,Clear,0,2013-10-22 02:35:00
10:55 PM,55.4,53.6,94,30.03,6.0,North,-9999.0,-,N/A,,Clear,0,2013-10-22 02:55:00
11:15 PM,55.4,53.6,94,30.02,7.0,North,-9999.0,-,N/A,,Clear,0,2013-10-22 03:15:00
11:35 PM,55.4,53.6,94,30.01,7.0,North,-9999.0,-,N/A,,Clear,0,2013-10-22 03:35:00
11:55 PM,55.4,55.4,100,30.01,6.0,North,-9999.0,-,N/A,,Clear,0,2013-10-22 03:55:00